,,,PA_Meas_PMT16A,,PR_Meas_QMR101_102,,RH_Meas_QMH101,,SR_Meas_QMS101,,TA_Meas_QMH101,,GenWind,,GenWind,
date,time,status,PA,status,PR,status,RH,status,SR,status,TA,status,DirAvg,status,SpdAvg,
2012-12-03, 00:00:04,VALID,1010.13,VALID,0,VALID,104,VALID,0,VALID,24.7659,VALID,174,VALID,0.737891,
2012-12-03, 00:01:04,VALID,1010.12,VALID,0,VALID,104,VALID,0,VALID,24.7445,VALID,167,VALID,0.828125,
2012-12-03, 00:02:04,VALID,1010.11,VALID,0,VALID,104,VALID,0,VALID,24.7659,VALID,162,VALID,0.593359,
2012-12-03, 00:03:04,VALID,1010.13,VALID,0,VALID,104,VALID,0,VALID,24.7659,VALID,162,VALID,0.701172,
2012-12-03, 00:04:04,VALID,1010.14,VALID,0,VALID,104,VALID,0,VALID,24.7854,VALID,163,VALID,0.252344,
2012-12-03, 00:05:04,VALID,1010.15,VALID,0,VALID,104,VALID,0,VALID,24.7872,VALID,163,VALID,0.448438,
2012-12-03, 00:06:04,VALID,1010.16,VALID,0,VALID,104,VALID,0,VALID,24.7872,VALID,163,VALID,0.582812,
2012-12-03, 00:07:04,VALID,1010.14,VALID,0,VALID,104,VALID,0,VALID,24.7464,VALID,163,VALID,0.246875,
2012-12-03, 00:08:04,VALID,1010.11,VALID,0,VALID,104,VALID,0,VALID,24.7659,VALID,163,VALID,0.498437,
2012-12-03, 00:09:04,VALID,1010.11,VALID,0,VALID,104,VALID,0,VALID,24.7659,VALID,163,VALID,0.439063,
2012-12-03, 00:10:04,VALID,1010.09,VALID,0,VALID,104,VALID,0,VALID,24.7269,VALID,163,VALID,0.566016,
2012-12-03, 00:11:04,VALID,1010.11,VALID,0,VALID,104,VALID,0,VALID,24.7678,VALID,161,VALID,0.494141,
2012-12-03, 00:12:04,VALID,1010.1,VALID,0,VALID,104,VALID,0,VALID,24.7269,VALID,159,VALID,0.474219,
2012-12-03, 00:13:04,VALID,1010.11,VALID,0,VALID,104,VALID,0,VALID,24.7269,VALID,158,VALID,0.645703,
2012-12-03, 00:14:04,VALID,1010.11,VALID,0,VALID,104,VALID,0,VALID,24.7074,VALID,156,VALID,0.562891,
2012-12-03, 00:15:04,VALID,1010.12,VALID,0,VALID,104,VALID,0,VALID,24.6879,VALID,157,VALID,0.675,
2012-12-03, 00:16:04,VALID,1010.12,VALID,0,VALID,104,VALID,0,VALID,24.7074,VALID,157,VALID,0.624219,
2012-12-03, 00:17:04,VALID,1010.11,VALID,0,VALID,104,VALID,0,VALID,24.7074,VALID,157,VALID,0.543359,
2012-12-03, 00:18:04,VALID,1010.09,VALID,0,VALID,104,VALID,0,VALID,24.6879,VALID,157,VALID,0.673828,
2012-12-03, 00:19:04,VALID,1010.09,VALID,0,VALID,104,VALID,0,VALID,24.7074,VALID,156,VALID,0.751953,
2012-12-03, 00:20:04,VALID,1010.08,VALID,0,VALID,104,VALID,0,VALID,24.6879,VALID,168,VALID,0.685547,
2012-12-03, 00:21:04,VALID,1010.03,VALID,0,VALID,104,VALID,0,VALID,24.7269,VALID,168,VALID,0.280859,
2012-12-03, 00:22:04,VALID,1010.04,VALID,0,VALID,104,VALID,0,VALID,24.7269,VALID,168,VALID,0.144531,
2012-12-03, 00:23:04,VALID,1009.99,VALID,0,VALID,104,VALID,0,VALID,24.7269,VALID,168,VALID,0.185937,
2012-12-03, 00:24:04,VALID,1009.94,VALID,0,VALID,104,VALID,0,VALID,24.7464,VALID,168,VALID,0.180078,
2012-12-03, 00:25:04,VALID,1009.94,VALID,0,VALID,104,VALID,0,VALID,24.7269,VALID,168,VALID,0.102344,
2012-12-03, 00:26:04,VALID,1009.92,VALID,0,VALID,104,VALID,0,VALID,24.7269,VALID,168,VALID,0,
2012-12-03, 00:27:04,VALID,1009.88,VALID,0,VALID,104,VALID,0,VALID,24.6879,VALID,168,VALID,0.278125,
2012-12-03, 00:28:04,VALID,1009.89,VALID,0,VALID,104,VALID,0,VALID,24.6684,VALID,168,VALID,0.294531,
2012-12-03, 00:29:04,VALID,1009.89,VALID,0,VALID,104,VALID,0,VALID,24.6879,VALID,168,VALID,0,
2012-12-03, 00:30:04,VALID,1009.91,VALID,0,VALID,104,VALID,0,VALID,24.6684,VALID,168,VALID,0.261328,
2012-12-03, 00:31:04,VALID,1009.9,VALID,0,VALID,104,VALID,0,VALID,24.6879,VALID,168,VALID,0.3875,
2012-12-03, 00:32:04,VALID,1009.89,VALID,0,VALID,104,VALID,0,VALID,24.6666,VALID,168,VALID,0.314844,
2012-12-03, 00:33:04,VALID,1009.88,VALID,0,VALID,104,VALID,0,VALID,24.7074,VALID,156,VALID,0.65625,
2012-12-03, 00:34:04,VALID,1009.86,VALID,0,VALID,104,VALID,0,VALID,24.7074,VALID,148,VALID,0.75625,
2012-12-03, 00:35:04,VALID,1009.81,VALID,0,VALID,104,VALID,0,VALID,24.6879,VALID,130,VALID,0.916016,
2012-12-03, 00:36:04,VALID,1009.8,VALID,0,VALID,104,VALID,0,VALID,24.6879,VALID,124,VALID,0.834375,
2012-12-03, 00:37:04,VALID,1009.81,VALID,0,VALID,104,VALID,0,VALID,24.6879,VALID,124,VALID,0.786328,
2012-12-03, 00:38:04,VALID,1009.78,VALID,0,VALID,104,VALID,0,VALID,24.6508,VALID,137,VALID,0.592578,
2012-12-03, 00:39:04,VALID,1009.78,VALID,0,VALID,104,VALID,0,VALID,24.6489,VALID,141,VALID,0.659766,
2012-12-03, 00:40:04,VALID,1009.8,VALID,0,VALID,104,VALID,0,VALID,24.6294,VALID,138,VALID,0.929688,
2012-12-03, 00:41:04,VALID,1009.8,VALID,0,VALID,104,VALID,0,VALID,24.6099,VALID,138,VALID,0.789063,
2012-12-03, 00:42:04,VALID,1009.81,VALID,0,VALID,104,VALID,0,VALID,24.6313,VALID,138,VALID,0.821094,
2012-12-03, 00:43:04,VALID,1009.79,VALID,0,VALID,104,VALID,0,VALID,24.5905,VALID,147,VALID,0.773438,
2012-12-03, 00:44:04,VALID,1009.81,VALID,0,VALID,104,VALID,0,VALID,24.571,VALID,147,VALID,0.556641,
2012-12-03, 00:45:04,VALID,1009.78,VALID,0,VALID,104,VALID,0,VALID,24.571,VALID,144,VALID,0.686719,
2012-12-03, 00:46:04,VALID,1009.76,VALID,0,VALID,104,VALID,0,VALID,24.571,VALID,123,VALID,0.946484,
2012-12-03, 00:47:04,VALID,1009.73,VALID,0,VALID,104,VALID,0,VALID,24.5515,VALID,122,VALID,1.08477,
2012-12-03, 00:48:04,VALID,1009.74,VALID,0,VALID,104,VALID,0,VALID,24.532,VALID,130,VALID,0.852734,
2012-12-03, 00:49:04,VALID,1009.71,VALID,0,VALID,104,VALID,0,VALID,24.5515,VALID,127,VALID,1.42148,
2012-12-03, 00:50:04,VALID,1009.7,VALID,0,VALID,104,VALID,0,VALID,24.5515,VALID,135,VALID,1.01797,
2012-12-03, 00:51:04,VALID,1009.71,VALID,0,VALID,104,VALID,0,VALID,24.5515,VALID,147,VALID,0.86875,
2012-12-03, 00:52:04,VALID,1009.68,VALID,0,VALID,104,VALID,0,VALID,24.532,VALID,158,VALID,0.426953,
2012-12-03, 00:53:04,VALID,1009.68,VALID,0,VALID,104,VALID,0,VALID,24.5125,VALID,159,VALID,0.367188,
2012-12-03, 00:54:04,VALID,1009.66,VALID,0,VALID,104,VALID,0,VALID,24.532,VALID,159,VALID,0.603906,
2012-12-03, 00:55:04,VALID,1009.63,VALID,0,VALID,104,VALID,0,VALID,24.4911,VALID,152,VALID,0.999219,
2012-12-03, 00:56:04,VALID,1009.6,VALID,0,VALID,104,VALID,0,VALID,24.5125,VALID,151,VALID,0.611328,
2012-12-03, 00:57:04,VALID,1009.6,VALID,0,VALID,104,VALID,0,VALID,24.5125,VALID,151,VALID,0.448828,
2012-12-03, 00:58:04,VALID,1009.58,VALID,0,VALID,104,VALID,0,VALID,24.5125,VALID,151,VALID,0.330859,
2012-12-03, 00:59:04,VALID,1009.56,VALID,0,VALID,104,VALID,0,VALID,24.5144,VALID,151,VALID,0.167187,
2012-12-03, 01:00:04,VALID,1009.55,VALID,0,VALID,104,VALID,0,VALID,24.493,VALID,151,VALID,0.284766,
2012-12-03, 01:01:04,VALID,1009.49,VALID,0,VALID,104,VALID,0,VALID,24.493,VALID,151,VALID,0.473828,
2012-12-03, 01:02:04,VALID,1009.49,VALID,0,VALID,104,VALID,0,VALID,24.493,VALID,150,VALID,0.490625,
2012-12-03, 01:03:04,VALID,1009.46,VALID,0,VALID,104,VALID,0,VALID,24.493,VALID,150,VALID,0.241406,
2012-12-03, 01:04:04,VALID,1009.45,VALID,0,VALID,104,VALID,0,VALID,24.4735,VALID,131,VALID,0.339844,
2012-12-03, 01:05:04,VALID,1009.42,VALID,0,VALID,104,VALID,0,VALID,24.4735,VALID,131,VALID,0.353125,
2012-12-03, 01:06:04,VALID,1009.4,VALID,0,VALID,104,VALID,0,VALID,24.4735,VALID,131,VALID,0.442187,
2012-12-03, 01:07:04,VALID,1009.4,VALID,0,VALID,104,VALID,0,VALID,24.4345,VALID,98,VALID,0.353516,
2012-12-03, 01:08:04,VALID,1009.42,VALID,0,VALID,104,VALID,0,VALID,24.4327,VALID,98,VALID,0.308203,
2012-12-03, 01:09:04,VALID,1009.42,VALID,0,VALID,104,VALID,0,VALID,24.4345,VALID,98,VALID,0.213281,
2012-12-03, 01:10:04,VALID,1009.43,VALID,0,VALID,104,VALID,0,VALID,24.415,VALID,98,VALID,0.485938,
2012-12-03, 01:11:04,VALID,1009.43,VALID,0,VALID,104,VALID,0,VALID,24.415,VALID,99,VALID,0.664844,
2012-12-03, 01:12:04,VALID,1009.43,VALID,0,VALID,104,VALID,0,VALID,24.3956,VALID,113,VALID,1.00859,
2012-12-03, 01:13:04,VALID,1009.43,VALID,0,VALID,104,VALID,0,VALID,24.415,VALID,113,VALID,0.813281,
2012-12-03, 01:14:04,VALID,1009.41,VALID,0,VALID,104,VALID,0,VALID,24.415,VALID,113,VALID,0.616406,
2012-12-03, 01:15:04,VALID,1009.4,VALID,0,VALID,104,VALID,0,VALID,24.3956,VALID,113,VALID,0.522656,
2012-12-03, 01:16:04,VALID,1009.38,VALID,0,VALID,104,VALID,0,VALID,24.4169,VALID,113,VALID,0.355469,
2012-12-03, 01:17:04,VALID,1009.35,VALID,0,VALID,104,VALID,0.112112,VALID,24.4132,VALID,113,VALID,0.482812,
2012-12-03, 01:18:04,VALID,1009.33,VALID,0,VALID,104,VALID,0.112112,VALID,24.3937,VALID,134,VALID,0.814453,
2012-12-03, 01:19:04,VALID,1009.33,VALID,0,VALID,104,VALID,0.112112,VALID,24.3937,VALID,135,VALID,0.752734,
2012-12-03, 01:20:04,VALID,1009.34,VALID,0,VALID,104,VALID,0,VALID,24.3742,VALID,136,VALID,0.595312,
2012-12-03, 01:21:04,VALID,1009.32,VALID,0,VALID,104,VALID,0.112112,VALID,24.3742,VALID,136,VALID,0.664844,
2012-12-03, 01:22:04,VALID,1009.35,VALID,0,VALID,104,VALID,0.112112,VALID,24.3742,VALID,136,VALID,0.897656,
2012-12-03, 01:23:04,VALID,1009.34,VALID,0,VALID,104,VALID,0.112112,VALID,24.3547,VALID,136,VALID,0.551172,
2012-12-03, 01:24:04,VALID,1009.33,VALID,0,VALID,104,VALID,0.112112,VALID,24.3742,VALID,136,VALID,0.494141,
2012-12-03, 01:25:04,VALID,1009.33,VALID,0,VALID,104,VALID,0.112112,VALID,24.3547,VALID,134,VALID,0.689844,
2012-12-03, 01:26:04,VALID,1009.35,VALID,0,VALID,104,VALID,0.112112,VALID,24.3547,VALID,134,VALID,0.455859,
2012-12-03, 01:27:04,VALID,1009.32,VALID,0,VALID,104,VALID,0.112112,VALID,24.3352,VALID,134,VALID,0.464453,
2012-12-03, 01:28:04,VALID,1009.34,VALID,0,VALID,104,VALID,0.112112,VALID,24.3352,VALID,134,VALID,0.541797,
2012-12-03, 01:29:04,VALID,1009.31,VALID,0,VALID,104,VALID,0.112112,VALID,24.3158,VALID,134,VALID,0.34375,
2012-12-03, 01:30:04,VALID,1009.31,VALID,0,VALID,104,VALID,0.112112,VALID,24.3158,VALID,101,VALID,0.732813,
2012-12-03, 01:31:04,VALID,1009.3,VALID,0,VALID,104,VALID,0,VALID,24.3371,VALID,100,VALID,0.487891,
2012-12-03, 01:32:04,VALID,1009.3,VALID,0,VALID,104,VALID,0,VALID,24.3176,VALID,100,VALID,0.341797,
2012-12-03, 01:33:04,VALID,1009.26,VALID,0,VALID,104,VALID,0,VALID,24.3158,VALID,101,VALID,0.218359,
2012-12-03, 01:34:04,VALID,1009.25,VALID,0,VALID,104,VALID,0,VALID,24.3158,VALID,101,VALID,0.350391,
2012-12-03, 01:35:04,VALID,1009.23,VALID,0,VALID,104,VALID,0,VALID,24.3176,VALID,101,VALID,0.549219,
2012-12-03, 01:36:04,VALID,1009.19,VALID,0,VALID,104,VALID,0,VALID,24.3176,VALID,101,VALID,0.453516,
2012-12-03, 01:37:04,VALID,1009.16,VALID,0,VALID,104,VALID,0,VALID,24.3176,VALID,92,VALID,0.400781,
2012-12-03, 01:38:04,VALID,1009.17,VALID,0,VALID,104,VALID,0,VALID,24.3176,VALID,91,VALID,0.466016,
2012-12-03, 01:39:04,VALID,1009.15,VALID,0,VALID,104,VALID,0,VALID,24.2981,VALID,91,VALID,0.466797,
2012-12-03, 01:40:04,VALID,1009.13,VALID,0,VALID,104,VALID,0,VALID,24.2981,VALID,91,VALID,0.115625,
2012-12-03, 01:41:04,VALID,1009.12,VALID,0,VALID,104,VALID,0,VALID,24.2981,VALID,91,VALID,0,
2012-12-03, 01:42:04,VALID,1009.1,VALID,0,VALID,104,VALID,0,VALID,24.2981,VALID,91,VALID,0.423047,
2012-12-03, 01:43:04,VALID,1009.11,VALID,0,VALID,104,VALID,0,VALID,24.2786,VALID,91,VALID,0.355078,
2012-12-03, 01:44:04,VALID,1009.1,VALID,0,VALID,104,VALID,0,VALID,24.2981,VALID,138,VALID,0.839063,
2012-12-03, 01:45:04,VALID,1009.11,VALID,0,VALID,104,VALID,0,VALID,24.2786,VALID,124,VALID,0.602734,
2012-12-03, 01:46:04,VALID,1009.09,VALID,0,VALID,104,VALID,0,VALID,24.2786,VALID,124,VALID,0.463672,
2012-12-03, 01:47:04,VALID,1009.09,VALID,0,VALID,104,VALID,0,VALID,24.2786,VALID,124,VALID,0.118359,
2012-12-03, 01:48:04,VALID,1009.08,VALID,0,VALID,104,VALID,0,VALID,24.2786,VALID,110,VALID,0.644922,
2012-12-03, 01:49:04,VALID,1009.06,VALID,0,VALID,104,VALID,0,VALID,24.2591,VALID,109,VALID,0.490234,
2012-12-03, 01:50:04,VALID,1009.06,VALID,0,VALID,104,VALID,0,VALID,24.2591,VALID,109,VALID,0.655469,
2012-12-03, 01:51:04,VALID,1009.04,VALID,0,VALID,104,VALID,0,VALID,24.2591,VALID,109,VALID,0.563672,
2012-12-03, 01:52:04,VALID,1009.04,VALID,0,VALID,104,VALID,0.112112,VALID,24.2396,VALID,103,VALID,0.607031,
2012-12-03, 01:53:04,VALID,1009.04,VALID,0,VALID,104,VALID,0,VALID,24.2183,VALID,96,VALID,0.792969,
2012-12-03, 01:54:04,VALID,1009.04,VALID,0,VALID,104,VALID,0,VALID,24.2202,VALID,93,VALID,0.905859,
2012-12-03, 01:55:04,VALID,1009.03,VALID,0,VALID,104,VALID,0,VALID,24.2202,VALID,93,VALID,0.964063,
2012-12-03, 01:56:04,VALID,1009,VALID,0,VALID,104,VALID,0,VALID,24.2202,VALID,103,VALID,1.13477,
2012-12-03, 01:57:04,VALID,1009.01,VALID,0,VALID,104,VALID,0,VALID,24.2202,VALID,98,VALID,0.962891,
2012-12-03, 01:58:04,VALID,1008.99,VALID,0,VALID,104,VALID,0,VALID,24.2202,VALID,100,VALID,0.591797,
2012-12-03, 01:59:04,VALID,1008.98,VALID,0,VALID,104,VALID,0,VALID,24.1812,VALID,101,VALID,0.465625,
2012-12-03, 02:00:04,VALID,1008.98,VALID,0,VALID,104,VALID,0,VALID,24.2007,VALID,101,VALID,0.439453,
2012-12-03, 02:01:04,VALID,1008.98,VALID,0,VALID,104,VALID,0,VALID,24.2007,VALID,100,VALID,0.1375,
2012-12-03, 02:02:04,VALID,1008.99,VALID,0,VALID,104,VALID,0.112112,VALID,24.1812,VALID,100,VALID,0.247656,
2012-12-03, 02:03:04,VALID,1008.97,VALID,0,VALID,104,VALID,0,VALID,24.2007,VALID,100,VALID,0.486719,
2012-12-03, 02:04:04,VALID,1008.97,VALID,0,VALID,104,VALID,0,VALID,24.1812,VALID,102,VALID,0.517187,
2012-12-03, 02:05:04,VALID,1008.97,VALID,0,VALID,104,VALID,0,VALID,24.1617,VALID,100,VALID,0.632813,
2012-12-03, 02:06:04,VALID,1008.97,VALID,0,VALID,104,VALID,0,VALID,24.1617,VALID,100,VALID,0.536328,
2012-12-03, 02:07:04,VALID,1008.97,VALID,0,VALID,104,VALID,0,VALID,24.1617,VALID,109,VALID,0.335156,
2012-12-03, 02:08:04,VALID,1008.93,VALID,0,VALID,104,VALID,0,VALID,24.1422,VALID,109,VALID,0.435937,
2012-12-03, 02:09:04,VALID,1008.91,VALID,0,VALID,104,VALID,0.112112,VALID,24.1422,VALID,109,VALID,0.247266,
2012-12-03, 02:10:04,VALID,1008.89,VALID,0,VALID,104,VALID,0,VALID,24.1227,VALID,109,VALID,0.358984,
2012-12-03, 02:11:04,VALID,1008.84,VALID,0,VALID,104,VALID,0.112112,VALID,24.1422,VALID,109,VALID,0.636719,
2012-12-03, 02:12:04,VALID,1008.84,VALID,0,VALID,104,VALID,0,VALID,24.1227,VALID,109,VALID,0.308984,
2012-12-03, 02:13:04,VALID,1008.84,VALID,0,VALID,104,VALID,0,VALID,24.1227,VALID,107,VALID,0.566406,
2012-12-03, 02:14:04,VALID,1008.83,VALID,0,VALID,104,VALID,0,VALID,24.1032,VALID,107,VALID,0.357422,
2012-12-03, 02:15:04,VALID,1008.82,VALID,0,VALID,104,VALID,0.112112,VALID,24.1032,VALID,108,VALID,0.437891,
2012-12-03, 02:16:04,VALID,1008.79,VALID,0,VALID,104,VALID,0,VALID,24.0819,VALID,102,VALID,0.278125,
2012-12-03, 02:17:04,VALID,1008.81,VALID,0,VALID,104,VALID,0,VALID,24.0819,VALID,87,VALID,0.665625,
2012-12-03, 02:18:04,VALID,1008.79,VALID,0,VALID,104,VALID,0.112112,VALID,24.0819,VALID,97,VALID,0.550391,
2012-12-03, 02:19:04,VALID,1008.75,VALID,0,VALID,104,VALID,0,VALID,24.1032,VALID,97,VALID,0.49375,
2012-12-03, 02:20:04,VALID,1008.75,VALID,0,VALID,104,VALID,0,VALID,24.0837,VALID,80,VALID,0.6375,
2012-12-03, 02:21:04,VALID,1008.8,VALID,0,VALID,104,VALID,0.112112,VALID,24.0819,VALID,99,VALID,0.458203,
2012-12-03, 02:22:04,VALID,1008.79,VALID,0,VALID,104,VALID,0,VALID,24.0624,VALID,99,VALID,0.257031,
2012-12-03, 02:23:04,VALID,1008.81,VALID,0,VALID,104,VALID,0,VALID,24.0837,VALID,77,VALID,0.410547,
2012-12-03, 02:24:04,VALID,1008.81,VALID,0,VALID,104,VALID,0.112112,VALID,24.0837,VALID,61,VALID,0.436328,
2012-12-03, 02:25:04,VALID,1008.81,VALID,0,VALID,104,VALID,0,VALID,24.0643,VALID,59,VALID,0.286719,
2012-12-03, 02:26:04,VALID,1008.79,VALID,0,VALID,104,VALID,0,VALID,24.0253,VALID,59,VALID,0.44375,
2012-12-03, 02:27:04,VALID,1008.78,VALID,0,VALID,104,VALID,0.112112,VALID,24.004,VALID,58,VALID,0.00273437,
2012-12-03, 02:28:04,VALID,1008.78,VALID,0,VALID,104,VALID,0.112112,VALID,23.965,VALID,58,VALID,0.202734,
2012-12-03, 02:29:04,VALID,1008.79,VALID,0,VALID,104,VALID,0,VALID,23.9845,VALID,58,VALID,0.260547,
2012-12-03, 02:30:04,VALID,1008.76,VALID,0,VALID,104,VALID,0,VALID,23.9863,VALID,59,VALID,0.372656,
2012-12-03, 02:31:04,VALID,1008.78,VALID,0,VALID,104,VALID,0.112112,VALID,23.9455,VALID,58,VALID,0.45625,
2012-12-03, 02:32:04,VALID,1008.78,VALID,0,VALID,104,VALID,0,VALID,23.9455,VALID,58,VALID,0.226172,
2012-12-03, 02:33:04,VALID,1008.76,VALID,0,VALID,104,VALID,0,VALID,23.9668,VALID,57,VALID,0.530859,
2012-12-03, 02:34:04,VALID,1008.75,VALID,0,VALID,104,VALID,0,VALID,23.9455,VALID,57,VALID,0,
2012-12-03, 02:35:04,VALID,1008.77,VALID,0,VALID,104,VALID,0,VALID,23.9863,VALID,57,VALID,0,
2012-12-03, 02:36:04,VALID,1008.75,VALID,0,VALID,104,VALID,0.112112,VALID,23.9455,VALID,57,VALID,0.0839844,
2012-12-03, 02:37:04,VALID,1008.76,VALID,0,VALID,104,VALID,0,VALID,23.965,VALID,57,VALID,0.363672,
2012-12-03, 02:38:04,VALID,1008.73,VALID,0,VALID,104,VALID,0.112112,VALID,23.9863,VALID,57,VALID,0.353516,
2012-12-03, 02:39:04,VALID,1008.73,VALID,0,VALID,104,VALID,0,VALID,23.9845,VALID,57,VALID,0.0121094,
2012-12-03, 02:40:04,VALID,1008.72,VALID,0,VALID,104,VALID,0,VALID,24.0058,VALID,57,VALID,0,
2012-12-03, 02:41:04,VALID,1008.76,VALID,0,VALID,104,VALID,0,VALID,24.0253,VALID,57,VALID,0,
2012-12-03, 02:42:04,VALID,1008.75,VALID,0,VALID,104,VALID,0,VALID,24.0058,VALID,57,VALID,0,
2012-12-03, 02:43:04,VALID,1008.74,VALID,0,VALID,104,VALID,0.112112,VALID,24.0253,VALID,57,VALID,0,
2012-12-03, 02:44:04,VALID,1008.78,VALID,0,VALID,104,VALID,0,VALID,24.004,VALID,57,VALID,0,
2012-12-03, 02:45:04,VALID,1008.77,VALID,0,VALID,104,VALID,0.112112,VALID,24.0235,VALID,57,VALID,0,
2012-12-03, 02:46:04,VALID,1008.76,VALID,0,VALID,104,VALID,0,VALID,24.0643,VALID,57,VALID,0,
2012-12-03, 02:47:04,VALID,1008.77,VALID,0,VALID,104,VALID,0,VALID,24.0643,VALID,57,VALID,0,
2012-12-03, 02:48:04,VALID,1008.76,VALID,0,VALID,104,VALID,0,VALID,24.1032,VALID,57,VALID,0,
2012-12-03, 02:49:04,VALID,1008.75,VALID,0,VALID,104,VALID,0.112112,VALID,24.1032,VALID,57,VALID,0,
2012-12-03, 02:50:04,VALID,1008.74,VALID,0,VALID,104,VALID,0,VALID,24.0448,VALID,57,VALID,0,
2012-12-03, 02:51:04,VALID,1008.74,VALID,0,VALID,104,VALID,0,VALID,24.0643,VALID,57,VALID,0,
2012-12-03, 02:52:04,VALID,1008.74,VALID,0,VALID,104,VALID,0,VALID,24.0624,VALID,57,VALID,0.388672,
2012-12-03, 02:53:04,VALID,1008.73,VALID,0,VALID,104,VALID,0,VALID,24.0819,VALID,57,VALID,0.267969,
2012-12-03, 02:54:04,VALID,1008.71,VALID,0,VALID,104,VALID,0.112112,VALID,23.9668,VALID,57,VALID,0.102344,
2012-12-03, 02:55:04,VALID,1008.68,VALID,0,VALID,104,VALID,0,VALID,24.0643,VALID,57,VALID,0,
2012-12-03, 02:56:04,VALID,1008.69,VALID,0,VALID,104,VALID,0,VALID,24.004,VALID,57,VALID,0.21875,
2012-12-03, 02:57:04,VALID,1008.7,VALID,0,VALID,104,VALID,0,VALID,23.9863,VALID,57,VALID,0.307422,
2012-12-03, 02:58:04,VALID,1008.69,VALID,0,VALID,104,VALID,0,VALID,24.0448,VALID,57,VALID,0.755469,
2012-12-03, 02:59:04,VALID,1008.7,VALID,0,VALID,104,VALID,0,VALID,24.0235,VALID,57,VALID,0.389453,
2012-12-03, 03:00:04,VALID,1008.71,VALID,0,VALID,104,VALID,0,VALID,24.0235,VALID,57,VALID,0.0773437,
2012-12-03, 03:01:04,VALID,1008.7,VALID,0,VALID,104,VALID,0,VALID,23.9863,VALID,57,VALID,0.392969,
2012-12-03, 03:02:04,VALID,1008.73,VALID,0,VALID,104,VALID,0,VALID,24.0253,VALID,57,VALID,0,
2012-12-03, 03:03:04,VALID,1008.72,VALID,0,VALID,104,VALID,0,VALID,24.0448,VALID,57,VALID,0.00273437,
2012-12-03, 03:04:04,VALID,1008.7,VALID,0,VALID,104,VALID,0,VALID,24.0643,VALID,57,VALID,0.00820312,
2012-12-03, 03:05:04,VALID,1008.75,VALID,0,VALID,104,VALID,0,VALID,24.0253,VALID,57,VALID,0.198828,
2012-12-03, 03:06:04,VALID,1008.75,VALID,0,VALID,104,VALID,0,VALID,24.0253,VALID,57,VALID,0.0683594,
2012-12-03, 03:07:04,VALID,1008.77,VALID,0,VALID,104,VALID,0,VALID,23.9845,VALID,57,VALID,0,
2012-12-03, 03:08:04,VALID,1008.78,VALID,0,VALID,104,VALID,0,VALID,23.9863,VALID,57,VALID,0.1625,
2012-12-03, 03:09:04,VALID,1008.75,VALID,0,VALID,104,VALID,0,VALID,23.9863,VALID,57,VALID,0.311328,
2012-12-03, 03:10:04,VALID,1008.71,VALID,0,VALID,104,VALID,0,VALID,23.9455,VALID,57,VALID,0.296875,
2012-12-03, 03:11:04,VALID,1008.75,VALID,0,VALID,104,VALID,0,VALID,24.0058,VALID,57,VALID,0.311328,
2012-12-03, 03:12:04,VALID,1008.73,VALID,0,VALID,104,VALID,0,VALID,23.9863,VALID,57,VALID,0.153516,
2012-12-03, 03:13:04,VALID,1008.73,VALID,0,VALID,104,VALID,0,VALID,23.965,VALID,57,VALID,0,
2012-12-03, 03:14:04,VALID,1008.76,VALID,0,VALID,104,VALID,0,VALID,23.9863,VALID,57,VALID,0,
2012-12-03, 03:15:04,VALID,1008.75,VALID,0,VALID,104,VALID,0,VALID,24.0058,VALID,57,VALID,0,
2012-12-03, 03:16:04,VALID,1008.75,VALID,0,VALID,104,VALID,0,VALID,23.9863,VALID,57,VALID,0,
2012-12-03, 03:17:04,VALID,1008.77,VALID,0,VALID,104,VALID,0,VALID,23.9863,VALID,57,VALID,0.009375,
2012-12-03, 03:18:04,VALID,1008.76,VALID,0,VALID,104,VALID,0.112112,VALID,24.0253,VALID,57,VALID,0.278906,
2012-12-03, 03:19:04,VALID,1008.75,VALID,0,VALID,104,VALID,0,VALID,23.965,VALID,57,VALID,0.250781,
2012-12-03, 03:20:04,VALID,1008.76,VALID,0,VALID,104,VALID,0,VALID,23.965,VALID,57,VALID,0,
2012-12-03, 03:21:04,VALID,1008.74,VALID,0,VALID,104,VALID,0,VALID,23.9863,VALID,57,VALID,0,
2012-12-03, 03:22:04,VALID,1008.72,VALID,0,VALID,104,VALID,0.112112,VALID,23.9845,VALID,57,VALID,0.229687,
2012-12-03, 03:23:04,VALID,1008.72,VALID,0,VALID,104,VALID,0,VALID,24.0058,VALID,57,VALID,0.449609,
2012-12-03, 03:24:04,VALID,1008.7,VALID,0,VALID,104,VALID,0,VALID,24.0058,VALID,57,VALID,0.211719,
2012-12-03, 03:25:04,VALID,1008.7,VALID,0,VALID,104,VALID,0,VALID,24.004,VALID,57,VALID,0.423828,
2012-12-03, 03:26:04,VALID,1008.68,VALID,0,VALID,104,VALID,0,VALID,24.004,VALID,57,VALID,0.410156,
2012-12-03, 03:27:04,VALID,1008.69,VALID,0,VALID,104,VALID,0,VALID,24.0253,VALID,57,VALID,0.512891,
2012-12-03, 03:28:04,VALID,1008.72,VALID,0,VALID,104,VALID,0,VALID,24.004,VALID,57,VALID,0.506641,
2012-12-03, 03:29:04,VALID,1008.7,VALID,0,VALID,104,VALID,0.112112,VALID,24.0235,VALID,181,VALID,0.735547,
2012-12-03, 03:30:04,VALID,1008.71,VALID,0,VALID,104,VALID,0,VALID,24.0253,VALID,181,VALID,0.533984,
2012-12-03, 03:31:04,VALID,1008.72,VALID,0,VALID,104,VALID,0,VALID,24.0448,VALID,205,VALID,0.497656,
2012-12-03, 03:32:04,VALID,1008.73,VALID,0,VALID,104,VALID,0,VALID,24.0448,VALID,204,VALID,0.564844,
2012-12-03, 03:33:04,VALID,1008.78,VALID,0,VALID,104,VALID,0.112112,VALID,24.0643,VALID,205,VALID,0.483984,
2012-12-03, 03:34:04,VALID,1008.76,VALID,0,VALID,104,VALID,0,VALID,24.0624,VALID,204,VALID,0.702734,
2012-12-03, 03:35:04,VALID,1008.76,VALID,0,VALID,104,VALID,0,VALID,24.0624,VALID,204,VALID,0.706641,
2012-12-03, 03:36:04,VALID,1008.79,VALID,0,VALID,104,VALID,0,VALID,24.1032,VALID,204,VALID,0.442969,
2012-12-03, 03:37:04,VALID,1008.76,VALID,0,VALID,104,VALID,0,VALID,24.0837,VALID,203,VALID,0.70625,
2012-12-03, 03:38:04,VALID,1008.78,VALID,0,VALID,104,VALID,0,VALID,24.0837,VALID,203,VALID,0.610937,
2012-12-03, 03:39:04,VALID,1008.76,VALID,0,VALID,104,VALID,0,VALID,24.0837,VALID,203,VALID,0.388281,
2012-12-03, 03:40:04,VALID,1008.75,VALID,0,VALID,104,VALID,0,VALID,24.1032,VALID,191,VALID,0.592969,
2012-12-03, 03:41:04,VALID,1008.79,VALID,0,VALID,104,VALID,0,VALID,24.1032,VALID,172,VALID,0.807813,
2012-12-03, 03:42:04,VALID,1008.74,VALID,0,VALID,104,VALID,0,VALID,24.1032,VALID,175,VALID,0.384375,
2012-12-03, 03:43:04,VALID,1008.77,VALID,0,VALID,104,VALID,0.112112,VALID,24.0819,VALID,196,VALID,0.782812,
2012-12-03, 03:44:04,VALID,1008.74,VALID,0,VALID,104,VALID,0,VALID,24.1032,VALID,191,VALID,0.970703,
2012-12-03, 03:45:04,VALID,1008.76,VALID,0,VALID,104,VALID,0,VALID,24.0837,VALID,189,VALID,0.998828,
2012-12-03, 03:46:04,VALID,1008.76,VALID,0,VALID,104,VALID,0,VALID,24.0624,VALID,201,VALID,0.639063,
2012-12-03, 03:47:04,VALID,1008.74,VALID,0,VALID,104,VALID,0.112112,VALID,24.0819,VALID,195,VALID,0.678906,
2012-12-03, 03:48:04,VALID,1008.73,VALID,0,VALID,104,VALID,0,VALID,24.0837,VALID,183,VALID,0.671484,
2012-12-03, 03:49:04,VALID,1008.69,VALID,0,VALID,104,VALID,0.112112,VALID,24.0819,VALID,188,VALID,1.13594,
2012-12-03, 03:50:04,VALID,1008.69,VALID,0,VALID,104,VALID,0,VALID,24.0837,VALID,189,VALID,0.743359,
2012-12-03, 03:51:04,VALID,1008.67,VALID,0,VALID,104,VALID,0.112112,VALID,24.0624,VALID,180,VALID,0.828906,
2012-12-03, 03:52:04,VALID,1008.67,VALID,0,VALID,104,VALID,0,VALID,24.0819,VALID,167,VALID,0.775781,
2012-12-03, 03:53:04,VALID,1008.67,VALID,0,VALID,104,VALID,0,VALID,24.0819,VALID,155,VALID,0.942187,